TimeEST,TemperatureF,Dew PointF,Humidity,Sea Level PressureIn,VisibilityMPH,Wind Direction,Wind SpeedMPH,Gust SpeedMPH,PrecipitationIn,Events,Conditions,WindDirDegrees,DateUTC
12:51 AM,30.0,27.0,88,30.24,10.0,Calm,Calm,-,N/A,,Overcast,0,2012-11-21 05:51:00
1:51 AM,30.0,27.0,88,30.25,10.0,Calm,Calm,-,N/A,,Overcast,0,2012-11-21 06:51:00
2:51 AM,30.0,28.0,92,30.25,10.0,Calm,Calm,-,N/A,,Overcast,0,2012-11-21 07:51:00
3:51 AM,30.0,28.0,92,30.25,10.0,Calm,Calm,-,N/A,,Overcast,0,2012-11-21 08:51:00
4:51 AM,27.0,26.1,96,30.26,9.0,Calm,Calm,-,N/A,,Clear,0,2012-11-21 09:51:00
5:51 AM,26.1,24.1,92,30.28,8.0,Calm,Calm,-,N/A,,Clear,0,2012-11-21 10:51:00
6:51 AM,24.1,21.9,91,30.31,7.0,Calm,Calm,-,N/A,,Clear,0,2012-11-21 11:51:00
7:51 AM,25.0,24.1,96,30.33,6.0,Calm,Calm,-,N/A,,Clear,0,2012-11-21 12:51:00
8:51 AM,30.9,30.0,96,30.32,7.0,Calm,Calm,-,N/A,,Overcast,0,2012-11-21 13:51:00
9:51 AM,35.1,30.0,82,30.31,7.0,Calm,Calm,-,N/A,,Clear,0,2012-11-21 14:51:00
10:51 AM,39.9,30.0,68,30.29,8.0,Calm,Calm,-,N/A,,Clear,0,2012-11-21 15:51:00
11:51 AM,46.4,28.4,50,30.23,10.0,Variable,3.5,-,N/A,,Clear,0,2012-11-21 16:51:00
12:51 PM,50.0,23.0,35,30.25,10.0,SSE,8.1,-,N/A,,Clear,150,2012-11-21 17:51:00
1:51 PM,50.0,19.9,31,30.25,10.0,South,5.8,-,N/A,,Clear,170,2012-11-21 18:51:00
2:51 PM,48.9,19.9,32,30.25,10.0,SSW,5.8,-,N/A,,Clear,200,2012-11-21 19:51:00
3:51 PM,45.0,21.9,40,30.26,10.0,SSW,4.6,-,N/A,,Clear,200,2012-11-21 20:51:00
4:51 PM,37.9,24.1,57,30.28,10.0,SSW,3.5,-,N/A,,Clear,200,2012-11-21 21:51:00
5:51 PM,39.0,24.1,55,30.30,10.0,Calm,Calm,-,N/A,,Clear,0,2012-11-21 22:51:00
6:51 PM,33.1,24.1,70,30.31,10.0,Calm,Calm,-,N/A,,Clear,0,2012-11-21 23:51:00
7:51 PM,30.9,23.0,72,30.31,10.0,Calm,Calm,-,N/A,,Clear,0,2012-11-22 00:51:00
8:51 PM,28.0,21.9,78,30.32,10.0,Calm,Calm,-,N/A,,Clear,0,2012-11-22 01:51:00
9:51 PM,27.0,21.9,81,30.31,10.0,Calm,Calm,-,N/A,,Clear,0,2012-11-22 02:51:00
10:51 PM,26.1,21.9,84,30.31,10.0,Calm,Calm,-,N/A,,Clear,0,2012-11-22 03:51:00
11:51 PM,25.0,21.9,88,30.31,10.0,Calm,Calm,-,N/A,,Clear,0,2012-11-22 04:51:00